EA3EH-1 Weather Reports


time (UTC)temp
F
wind
direction
speed
knots
gust
knots
rain 1hr
in
rain 24hr
in
rain mn
in
humidity
%
barometer
mb
20260504231145 57 197 0.0 0.0 0.00 0.00 0.12 78 1008.0
20260504224145 59 197 0.0 0.0 0.00 0.00 0.12 81 1007.0
20260504223645 59 197 0.0 0.0 0.00 0.00 0.12 81 1007.0
20260504223146 59 197 0.0 0.0 0.00 0.00 0.12 81 1007.0
20260504222145 59 197 0.0 0.0 0.00 0.00 0.12 81 1008.0
20260504221145 59 197 0.0 0.0 0.00 0.00 0.12 80 1008.0
20260504215645 59 197 0.0 0.0 0.00 0.00 0.12 80 1008.0
20260504213145 59 197 0.0 0.0 0.00 0.00 0.12 79 1008.0
20260504211645 60 197 2.6 0.0 0.00 0.00 0.12 80 1009.0
20260504211145 60 197 0.0 0.0 0.00 0.00 0.12 80 1009.0
20260504210745 60 197 0.0 0.0 0.00 0.00 0.12 79 1008.0
20260504210247 59 197 0.0 0.0 0.04 0.00 0.12 79 1008.0
20260504204744 60 197 0.0 0.0 0.04 0.00 0.12 78 1008.0
20260504204144 60 197 0.0 0.0 0.00 0.00 0.08 78 1008.0
20260504203145 60 197 0.0 0.0 0.00 0.00 0.08 78 1008.0
20260504202647 60 197 0.0 0.0 0.00 0.00 0.08 78 1008.0
20260504195644 60 197 0.0 0.0 0.00 0.00 0.08 78 1007.0
20260504194645 60 197 0.0 0.0 0.00 0.00 0.08 77 1007.0
20260504193644 60 197 0.0 0.0 0.00 0.00 0.08 76 1007.0
20260504192145 60 197 0.0 0.0 0.00 0.00 0.08 76 1007.0
20260504191146 61 287 0.0 0.0 0.00 0.00 0.08 76 1007.0
20260504190649 61 288 0.0 0.0 0.00 0.00 0.08 77 1007.0
20260504190144 61 288 0.0 0.0 0.00 0.00 0.08 76 1007.0
20260504185644 61 288 0.0 0.0 0.00 0.00 0.08 76 1007.0
20260504185144 61 288 0.0 0.0 0.00 0.00 0.08 75 1007.0
20260504184644 61 288 0.0 0.0 0.00 0.00 0.08 75 1007.0
20260504184145 61 288 0.0 0.0 0.00 0.00 0.08 75 1007.0
20260504183644 62 288 0.0 0.0 0.00 0.00 0.08 75 1006.0
20260504183148 62 288 0.0 0.0 0.00 0.00 0.08 74 1006.0
20260504182645 62 288 0.0 0.0 0.00 0.00 0.08 73 1006.0
20260504181145 61 287 0.0 0.0 0.00 0.00 0.08 71 1006.0
20260504180745 62 288 0.0 0.0 0.00 0.00 0.08 71 1007.0
20260504175245 62 288 0.0 0.0 0.00 0.00 0.08 70 1007.0
20260504174744 62 288 0.0 0.0 0.00 0.00 0.08 69 1007.0
20260504174245 62 288 0.0 0.0 0.00 0.00 0.08 68 1007.0
20260504173744 63 288 0.0 0.0 0.00 0.00 0.08 69 1007.0
20260504173244 63 288 0.0 0.0 0.00 0.00 0.08 69 1007.0
20260504171745 63 288 0.0 0.0 0.00 0.00 0.08 69 1007.0
20260504171244 63 288 0.0 0.0 0.00 0.00 0.08 67 1007.0
20260504170744 63 288 0.0 0.0 0.00 0.00 0.08 67 1007.0
20260504150245 63 211 0.0 0.0 0.04 0.00 0.08 65 1007.0
20260504140445 63 209 2.6 0.0 0.00 0.00 0.04 54 1007.0
20260504130645 70 147 2.6 2.6 0.00 0.00 0.00 33 1007.0
20260504120147 78 44 1.7 2.6 0.00 0.00 0.00 20 1007.0
20260504110144 73 197 0.0 0.0 0.00 0.00 0.00 21 1008.0
20260504100148 70 211 0.0 0.0 0.00 0.00 0.00 22 1008.0
20260504081146 64 215 0.0 2.6 0.00 0.00 0.00 40 1008.0
20260504050148 55 220 3.5 4.3 0.00 0.00 0.00 77 1009.0
20260504045645 55 226 0.0 4.3 0.00 0.00 0.00 78 1009.0
20260504043645 54 124 0.0 0.0 0.00 0.00 0.00 77 1009.0
20260504041645 54 124 0.0 0.0 0.00 0.00 0.00 76 1009.0
20260504040148 54 124 0.0 0.0 0.00 0.00 0.00 75 1009.0
20260504035645 54 124 1.7 2.6 0.00 0.00 0.00 75 1009.0
20260504034646 54 124 0.0 0.0 0.00 0.00 0.00 75 1009.0
20260504033645 54 124 0.0 0.0 0.00 0.00 0.00 74 1009.0
20260504031145 55 124 0.0 0.0 0.00 0.00 0.00 74 1009.0
20260504030645 55 124 0.0 0.0 0.00 0.00 0.00 74 1009.0
20260504030144 55 124 0.0 0.0 0.00 0.00 0.00 74 1009.0
20260504025144 55 124 0.0 0.0 0.00 0.00 0.00 74 1009.0
20260504023645 55 124 0.0 0.0 0.00 0.00 0.00 75 1009.0
20260504023146 55 124 0.0 0.0 0.00 0.00 0.00 76 1009.0
20260504022644 56 124 0.0 0.0 0.00 0.00 0.00 77 1009.0
20260504022145 55 124 0.0 0.0 0.00 0.00 0.00 76 1009.0
20260504021644 55 124 0.0 0.0 0.00 0.00 0.00 75 1009.0
20260504015644 56 124 0.0 0.0 0.00 0.00 0.00 74 1010.0
20260504014645 57 124 0.0 0.0 0.00 0.00 0.00 75 1010.0
20260504012146 56 124 0.0 0.0 0.00 0.00 0.00 75 1010.0
20260504002645 56 124 0.0 0.0 0.00 0.00 0.00 75 1010.0
20260504001646 57 124 0.0 0.0 0.00 0.00 0.00 74 1010.0
20260504001146 57 124 1.7 2.6 0.00 0.00 0.00 73 1010.0
20260504000145 57 124 0.0 0.0 0.00 0.00 0.00 72 1010.0
20260503235644 58 124 0.0 0.0 0.00 0.00 0.00 73 1010.0
20260503235145 57 124 0.0 0.0 0.00 0.00 0.00 73 1010.0
20260503234647 57 124 0.0 0.0 0.00 0.00 0.00 73 1010.0
20260503234145 57 124 0.0 0.0 0.00 0.00 0.00 71 1010.0
20260503233145 58 124 0.0 0.0 0.00 0.00 0.00 70 1011.0